This is the latest recevied weather packets stored in our database for station/object N7CW. If no packets are shown the sender has not sent any weather packets the latest 10 day(s).
| Time | Temp. | Humidity | Pressure | Rain* | Wind** | Luminosity | Snow |
|---|---|---|---|---|---|---|---|
| 1777620525 | 12.78° C | 26% | 1014 hPa | 0 mm | - | 0 W/m² | - |
| 1777620222 | 12.22° C | 26% | 1013.9 hPa | 0 mm | - | 0 W/m² | - |
| 1777619919 | 12.22° C | 26% | 1013.8 hPa | 0 mm | - | 0 W/m² | - |
| 1777619614 | 12.22° C | 26% | 1013.9 hPa | 0 mm | - | 0 W/m² | - |
| 1777619310 | 12.78° C | 26% | 1013.9 hPa | 0 mm | - | 0 W/m² | - |
| 1777619010 | 12.22° C | 26% | 1014.1 hPa | 0 mm | - | 0 W/m² | - |
| 1777618710 | 12.78° C | 26% | 1013.9 hPa | 0 mm | - | 0 W/m² | - |
| 1777618405 | 11.67° C | 26% | 1013.9 hPa | 0 mm | - | 0 W/m² | - |
| 1777618102 | 12.22° C | 27% | 1013.9 hPa | 0 mm | - | 0 W/m² | - |
| 1777617799 | 12.22° C | 26% | 1013.8 hPa | 0 mm | - | 0 W/m² | - |
| 1777617499 | 12.22° C | 26% | 1013.6 hPa | 0 mm | - | 0 W/m² | - |
| 1777617196 | 12.22° C | 27% | 1013.9 hPa | 0 mm | - | 0 W/m² | - |
| 1777616892 | 12.78° C | 26% | 1014 hPa | 0 mm | - | 0 W/m² | - |
| 1777616588 | 11.67° C | 26% | 1013.8 hPa | 0 mm | - | 0 W/m² | - |
| 1777616284 | 11.11° C | 28% | 1013.6 hPa | 0 mm | - | 0 W/m² | - |
| 1777615981 | 11.67° C | 30% | 1013.6 hPa | 0 mm | - | 0 W/m² | - |
| 1777615677 | 11.67° C | 30% | 1013.6 hPa | 0 mm | - | 0 W/m² | - |
| 1777615375 | 11.67° C | 29% | 1013.6 hPa | 0 mm | - | 0 W/m² | - |
| 1777615074 | 12.22° C | 26% | 1013.5 hPa | 0 mm | - | 0 W/m² | - |
| 1777614770 | 12.22° C | 28% | 1013.6 hPa | 0 mm | - | 0 W/m² | - |
| 1777614470 | 12.22° C | 27% | 1013.5 hPa | 0 mm | - | 0 W/m² | - |
| 1777614167 | 12.78° C | 27% | 1013.5 hPa | 0 mm | - | 0 W/m² | - |
| 1777613861 | 12.78° C | 27% | 1013.5 hPa | 0 mm | - | 0 W/m² | - |
| 1777613559 | 12.78° C | 27% | 1013.5 hPa | 0 mm | - | 0 W/m² | - |
| 1777613255 | 12.78° C | 27% | 1013.6 hPa | 0 mm | - | 0 W/m² | - |
* Rain latest hour (hover to see other rain measurements)
** Current wind speed in m/s (hover to see current wind gust speed)